FW2284 Weather Reports


Display with metric or nautical units.
time (UTC)temp
F
wind
direction
speed
MPH
gust
MPH
rain 1hr
in
rain 24hr
in
rain mn
in
humidity
%
barometer
mb
20260831093014 73 193 2.0 5.0 0.00 0.00 0.00 67 1014.9
20260831091528 73 159 2.0 3.0 0.00 0.00 0.00 66 1015.0
20260831090017 74 195 1.0 6.0 0.00 0.00 0.00 66 1015.0
20260831084515 74 174 2.0 6.0 0.00 0.00 0.00 64 1014.8
20260831083007 75 168 2.0 4.0 0.00 0.00 0.00 64 1014.7
20260831081507 75 214 2.0 7.0 0.00 0.00 0.00 63 1014.6
20260831080005 75 158 2.0 6.0 0.00 0.00 0.00 63 1014.6
20260831074505 75 224 1.0 3.0 0.00 0.00 0.00 64 1014.7
20260831073004 75 187 1.0 4.0 0.00 0.00 0.00 63 1014.7
20260831071600 76 201 1.0 4.0 0.00 0.00 0.00 61 1014.7
20260831070100 76 193 2.0 7.0 0.00 0.00 0.00 61 1014.7
20260831064608 77 191 3.0 5.0 0.00 0.00 0.00 60 1014.9
20260831063058 76 203 2.0 4.0 0.00 0.00 0.00 60 1015.0
20260831061558 76 153 2.0 6.0 0.00 0.00 0.00 62 1015.1
20260831060057 76 169 1.0 3.0 0.00 0.00 0.00 62 1015.1
20260831054604 76 156 0.0 2.0 0.00 0.00 0.00 62 1015.0
20260831053053 77 148 1.0 4.0 0.00 0.00 0.00 61 1014.9
20260831051553 76 194 1.0 5.0 0.00 0.00 0.00 62 1014.7
20260831050051 77 136 1.0 4.0 0.00 0.00 0.00 62 1014.8
20260831044608 77 163 2.0 4.0 0.00 0.00 0.00 62 1015.0
20260831043048 77 142 1.0 4.0 0.00 0.00 0.00 62 1014.9
20260831041608 78 148 2.0 5.0 0.00 0.00 0.00 62 1015.0
20260831040048 77 187 1.0 3.0 0.00 0.00 0.00 62 1015.0
20260831034549 78 158 0.0 3.0 0.00 0.00 0.00 63 1014.9
20260831033046 79 175 1.0 4.0 0.00 0.00 0.00 62 1014.8
20260831031545 79 143 2.0 7.0 0.00 0.00 0.00 61 1014.6
20260831030051 80 143 2.0 6.0 0.00 0.00 0.00 61 1014.6
20260831024545 80 156 4.0 7.0 0.00 0.00 0.00 61 1014.5
20260831023044 80 124 3.0 6.0 0.00 0.00 0.00 62 1014.4
20260831021543 80 113 2.0 5.0 0.00 0.00 0.00 63 1014.4
20260831020044 80 144 1.0 4.0 0.00 0.00 0.00 63 1014.3
20260831014542 80 123 2.0 4.0 0.00 0.00 0.00 63 1014.2
20260831013041 81 139 2.0 4.0 0.00 0.00 0.00 63 1014.1
20260831011545 81 136 2.0 4.0 0.00 0.00 0.00 64 1013.8
20260831010038 82 142 1.0 3.0 0.00 0.00 0.00 64 1013.7
20260831004538 84 132 2.0 5.0 0.00 0.00 0.00 61 1013.7
20260831003041 85 139 1.0 3.0 0.00 0.00 0.00 58 1013.6
20260831001535 88 156 1.0 3.0 0.00 0.00 0.00 56 1013.7
20260831000035 90 178 1.0 4.0 0.00 0.00 0.00 51 1013.8
20260830234542 91 180 2.0 4.0 0.00 0.00 0.00 49 1013.8
20260830233033 92 135 0.0 3.0 0.00 0.00 0.00 50 1014.0
20260830231537 91 154 2.0 4.0 0.00 0.00 0.00 47 1013.9
20260830230042 91 145 2.0 6.0 0.00 0.00 0.00 47 1013.9
20260830224531 93 142 2.0 6.0 0.00 0.00 0.00 45 1013.8
20260830223030 93 219 2.0 8.0 0.00 0.00 0.00 44 1013.9
20260830221528 93 141 4.0 8.0 0.00 0.00 0.00 44 1013.9
20260830220028 93 126 4.0 7.0 0.00 0.00 0.00 45 1014.0
20260830214526 93 155 3.0 7.0 0.00 0.00 0.00 43 1014.1
20260830213025 93 152 5.0 10.0 0.00 0.00 0.00 42 1014.0
20260830211523 94 108 4.0 10.0 0.00 0.00 0.00 42 1014.2
20260830210021 94 124 3.0 7.0 0.00 0.00 0.00 43 1014.5
20260830204520 94 136 4.0 8.0 0.00 0.00 0.00 44 1014.5
20260830203017 94 117 3.0 7.0 0.00 0.00 0.00 42 1014.6
20260830201528 93 154 4.0 9.0 0.00 0.00 0.00 44 1014.7
20260830200012 92 141 3.0 7.0 0.00 0.00 0.00 42 1014.8
20260830194510 92 220 4.0 8.0 0.00 0.00 0.00 45 1015.0
20260830193014 91 78 4.0 10.0 0.00 0.00 0.00 44 1015.1
20260830191513 91 166 2.0 8.0 0.00 0.00 0.00 44 1015.2
20260830190005 92 150 4.0 10.0 0.00 0.00 0.00 46 1015.4
20260830184502 90 146 5.0 11.0 0.00 0.00 0.00 43 1015.4
20260830183001 89 117 4.0 11.0 0.00 0.00 0.00 48 1015.4
20260830181559 90 95 3.0 11.0 0.00 0.00 0.00 51 1015.4
20260830180106 89 190 5.0 8.0 0.00 0.00 0.00 47 1015.6
20260830174607 89 211 4.0 9.0 0.00 0.00 0.00 47 1015.9
20260830173058 88 218 3.0 9.0 0.00 0.00 0.00 47 1016.1
20260830171555 88 197 7.0 12.0 0.00 0.00 0.00 45 1016.2
20260830170048 87 198 5.0 12.0 0.00 0.00 0.00 48 1016.4
20260830164548 86 179 6.0 12.0 0.00 0.00 0.00 47 1016.6
20260830163043 85 203 4.0 11.0 0.00 0.00 0.00 52 1016.6
20260830161540 84 224 6.0 12.0 0.00 0.00 0.00 54 1016.6
20260830160039 84 172 7.0 13.0 0.00 0.00 0.00 53 1016.6
20260830154534 82 199 5.0 12.0 0.00 0.00 0.00 56 1016.3
20260830153031 82 241 5.0 11.0 0.00 0.00 0.00 57 1016.3
20260830151528 81 209 5.0 11.0 0.00 0.00 0.00 59 1016.2
20260830150030 80 204 6.0 10.0 0.00 0.00 0.00 61 1016.0
20260830144530 79 196 4.0 10.0 0.00 0.00 0.00 61 1016.2
20260830143020 78 206 3.0 9.0 0.00 0.00 0.00 65 1016.1
20260830141534 77 195 4.0 8.0 0.00 0.00 0.00 64 1016.2
20260830140015 76 186 4.0 8.0 0.00 0.00 0.00 66 1016.2
20260830134512 76 174 3.0 9.0 0.00 0.00 0.00 67 1016.2
20260830133008 75 205 3.0 7.0 0.00 0.00 0.00 69 1016.2
20260830131505 74 202 3.0 7.0 0.00 0.00 0.00 71 1016.4
20260830130003 73 209 4.0 8.0 0.00 0.00 0.00 71 1016.2
20260830124501 72 245 4.0 7.0 0.00 0.00 0.00 73 1016.3
20260830123105 71 203 4.0 9.0 0.00 0.00 0.00 75 1016.4
20260830121603 69 176 3.0 6.0 0.00 0.00 0.00 78 1016.3
20260830120059 68 179 3.0 5.0 0.00 0.00 0.00 80 1016.2
20260830114609 68 152 3.0 6.0 0.00 0.00 0.00 81 1016.1
20260830113032 68 203 2.0 4.0 0.00 0.00 0.00 81 1016.1
20260830111531 68 183 2.0 4.0 0.00 0.00 0.00 80 1016.1
20260830110030 69 175 2.0 5.0 0.00 0.00 0.00 79 1015.8
20260830104628 69 186 3.0 6.0 0.00 0.00 0.00 79 1015.8
20260830103030 69 200 2.0 5.0 0.00 0.00 0.00 79 1016.0
20260830101525 69 213 1.0 4.0 0.00 0.00 0.00 79 1016.1
20260830100023 69 188 1.0 4.0 0.00 0.00 0.00 79 1016.0
20260830094523 69 193 2.0 3.0 0.00 0.00 0.00 80 1015.7